GFSNIL_sfc_30mbdewp_000.txt.gz
Dewpoint
23 21 19 17 16 15 13 14 14 13 12 11 11 11 11 13 13 13 14 13 14 16
18 17 15 14 14 13 13 12 11 11 10 10 10 11 11 13 12 13 14 14 14 14
14 14 12 12 10 10 10 9 9 9 10 10 11 12 12 13 14 13 13 13 13 15
11 11 10 8 8 8 9 9 9 10 11 11 12 12 13 13 14 13 13 13 15 18
10 9 8 8 9 9 9 10 10 11 12 12 13 14 14 14 14 14 14 14 18 20
9 9 10 10 10 11 11 11 12 12 12 13 14 15 15 15 15 15 15 17 19 21
10 10 11 12 12 12 12 11 12 12 13 13 14 14 14 16 16 17 18 19 21 21
12 12 12 13 12 12 12 12 11 12 13 14 13 11 18 18 17 17 17 18 20 20
12 13 13 12 11 10 10 10 12 13 13 13 12 16 17 18 16 15 15 17 19 20
13 12 11 10 9 8 9 12 14 14 13 12 12 15 17 18 17 15 17 19 20 20
11 10 10 9 9 8 11 13 14 13 13 12 11 15 17 20 19 18 18 19 19 20
10 9 9 8 8 10 12 13 13 13 12 11 12 14 18 20 20 19 19 19 20 21
10 9 8 7 9 12 13 13 13 11 11 12 10 14 18 20 19 19 19 20 22 23
8 7 8 10 12 12 12 12 11 11 11 11 12 15 18 20 20 20 21 22 24 23

GFSNIL_sfc_30mbdewp_003.txt.gz
Dewpoint
30 28 25 23 20 16 14 14 14 12 11 10 11 12 12 14 13 14 14 13 13 15
24 22 19 17 15 14 14 12 11 10 10 10 11 12 12 13 13 14 14 14 14 14
18 16 15 14 12 11 10 9 9 9 10 11 12 13 13 14 14 14 14 14 14 15
14 12 11 9 9 9 9 9 9 11 12 12 13 13 14 14 14 14 15 15 15 17
11 10 9 9 9 9 9 10 11 12 12 13 14 15 14 14 15 15 15 16 17 19
10 10 10 10 11 11 11 11 12 12 13 14 15 14 14 15 16 17 16 17 18 19
10 11 11 12 12 12 12 12 12 13 14 14 14 13 15 18 18 17 17 17 18 20
12 12 13 13 12 12 12 11 13 14 14 14 13 12 19 20 18 17 16 17 18 19
13 14 14 12 11 10 11 13 15 14 14 13 12 17 19 21 21 18 17 18 19 20
14 13 11 10 9 10 11 14 14 13 13 12 12 17 19 21 20 19 19 19 19 19
13 11 11 10 9 11 13 13 14 13 13 12 12 17 18 20 20 19 19 19 19 19
11 10 10 9 10 12 13 13 13 13 12 12 14 17 19 21 20 19 19 20 20 20
10 9 9 11 12 13 13 12 12 12 13 15 13 16 19 20 20 20 20 21 22 25
9 9 12 12 13 12 12 12 13 14 14 14 15 18 19 21 21 20 21 21 19 21

GFSNIL_sfc_30mbdewp_006.txt.gz
Dewpoint
28 25 23 22 19 17 15 14 13 11 10 10 11 12 13 15 14 14 14 13 14 15
28 25 23 21 17 15 14 12 10 10 10 11 12 13 13 14 14 15 15 15 15 15
25 22 18 15 14 12 10 10 9 10 11 12 13 13 14 14 15 14 15 16 15 15
17 15 13 11 10 9 9 9 10 12 12 13 13 14 14 14 14 16 16 16 16 17
13 11 9 9 9 10 10 11 12 12 13 14 14 14 13 14 17 17 17 17 17 17
10 10 10 10 11 11 11 12 12 13 14 14 14 13 13 16 18 18 17 17 17 18
10 11 11 12 12 12 12 12 13 14 14 14 13 12 14 20 20 19 18 18 18 18
12 13 14 13 12 12 12 13 15 14 14 13 12 11 19 21 21 19 18 18 18 19
14 14 13 12 11 11 13 14 14 14 13 12 12 17 21 21 22 20 19 18 19 20
15 13 11 10 10 12 13 14 13 13 13 12 13 18 20 21 22 20 19 20 20 20
13 11 11 9 11 12 13 13 13 12 12 12 13 19 19 21 21 20 20 20 20 20
12 10 10 10 12 13 13 12 12 12 13 13 15 18 20 21 21 20 20 21 21 21
11 9 10 12 12 13 12 12 13 13 14 16 15 18 20 21 21 21 20 21 22 22
10 12 12 12 12 12 12 13 13 15 15 16 17 18 20 21 21 21 20 19 21 23

GFSNIL_sfc_30mbdewp_009.txt.gz
Dewpoint
26 24 23 22 20 18 17 16 14 13 13 13 14 15 16 17 17 17 17 17 16 16
26 24 24 22 20 18 16 13 13 13 13 14 15 15 15 16 15 16 17 17 17 17
26 24 22 19 16 15 13 11 12 12 13 14 15 15 15 15 16 16 17 17 17 17
23 20 17 15 13 11 11 11 12 13 13 14 14 15 14 14 16 18 18 18 18 18
17 15 13 11 11 11 11 13 13 14 14 14 14 14 12 15 18 18 18 18 18 18
13 12 11 11 11 12 13 13 14 15 14 14 14 13 12 16 19 20 19 19 18 17
12 11 12 13 13 13 13 14 15 14 14 14 13 12 13 19 21 21 20 20 19 18
13 14 14 13 13 14 15 15 15 14 14 13 12 11 20 22 22 22 20 20 19 19
15 15 14 13 13 15 15 15 14 13 13 13 11 18 22 22 22 22 20 19 19 20
15 14 12 12 13 14 14 14 13 12 13 12 13 20 21 21 21 21 20 20 20 20
13 12 11 12 13 13 13 13 12 12 13 13 14 20 20 22 21 21 21 21 21 21
12 11 12 12 12 13 12 12 12 13 14 14 17 19 21 22 21 21 21 21 21 22
11 11 12 12 12 12 12 12 13 14 15 17 16 19 21 21 20 20 20 21 21 21
12 12 12 12 12 12 13 13 13 15 16 16 17 18 20 21 20 20 21 20 21 20

GFSNIL_sfc_30mbdewp_012.txt.gz
Dewpoint
31 31 26 26 25 22 21 19 18 16 14 14 15 16 17 17 17 16 16 18 18 17
32 30 27 25 24 22 20 17 15 15 14 14 14 15 16 15 14 15 17 17 18 18
30 28 26 24 22 20 17 14 14 14 14 14 14 15 15 14 15 15 16 17 18 18
27 25 23 22 20 17 14 14 13 13 13 13 14 14 13 13 15 17 18 19 19 19
25 22 21 18 16 14 13 13 12 12 13 14 13 13 11 13 16 18 18 19 19 19
22 20 17 15 13 13 13 13 13 14 14 13 14 12 11 13 16 18 19 19 19 17
19 17 15 14 13 13 13 14 14 14 14 14 12 12 12 17 19 20 20 21 20 18
16 15 14 14 13 13 15 15 14 14 13 13 12 10 19 21 21 20 19 19 18 17
16 16 15 14 14 16 16 15 14 13 13 13 11 19 23 23 20 19 18 17 17 17
16 15 14 14 15 15 15 14 13 12 12 12 12 20 22 22 20 19 18 19 19 18
15 13 13 13 14 13 13 12 12 11 12 12 12 20 21 22 19 18 18 19 19 18
13 13 13 13 13 12 11 11 11 12 12 11 12 17 21 22 18 17 17 18 17 19
12 13 13 13 11 12 12 11 11 11 12 14 12 15 21 21 19 17 16 16 17 19
13 12 12 11 11 11 11 11 10 10 11 12 13 14 19 21 20 18 17 17 18 18

GFSNIL_sfc_30mbdewp_015.txt.gz
Dewpoint
44 40 35 30 26 25 25 24 23 21 20 20 19 19 19 20 20 18 19 20 20 20
40 34 31 28 26 26 25 23 21 20 18 17 17 17 17 17 16 17 18 19 19 20
35 31 30 28 27 25 23 20 19 18 18 17 16 16 16 17 16 16 17 18 19 19
33 32 28 26 24 22 19 19 17 17 16 15 15 15 14 14 15 16 18 19 20 20
30 27 26 23 21 19 18 17 16 15 15 15 14 13 12 12 14 16 17 18 20 21
25 24 22 20 17 17 16 15 15 15 15 14 15 13 12 12 13 16 18 19 19 19
24 20 18 17 17 16 16 15 16 15 15 14 13 13 13 16 18 20 21 21 20 19
22 19 18 17 16 16 17 16 16 15 14 14 13 11 19 21 21 20 19 19 18 18
19 18 18 17 17 18 17 16 15 14 13 13 11 19 23 24 21 19 17 17 16 18
19 18 18 18 18 17 16 15 14 12 12 12 13 20 22 23 21 19 18 19 20 19
19 18 18 17 16 15 14 13 12 11 11 13 13 19 21 22 21 17 17 18 18 18
17 16 16 15 14 13 12 11 10 12 12 11 10 16 20 22 19 16 17 17 16 17
16 16 16 14 12 12 12 11 12 12 12 11 11 12 18 20 19 17 17 17 17 17
15 14 12 11 11 10 12 12 10 9 9 10 11 12 16 19 20 19 19 18 18 20

GFSNIL_sfc_30mbdewp_018.txt.gz
Dewpoint
45 39 37 35 31 27 26 26 27 25 25 23 23 22 23 22 21 20 21 20 21 21
42 39 36 35 29 27 26 25 24 23 21 20 20 20 19 20 19 18 19 20 21 21
40 37 34 30 27 26 24 24 22 20 19 18 18 17 18 18 17 16 18 20 19 20
36 33 29 28 26 24 22 21 20 19 18 17 17 16 16 15 16 16 18 19 20 21
33 30 28 25 23 21 20 19 19 18 17 16 15 14 13 13 14 15 17 18 20 21
29 26 25 22 20 20 18 17 16 16 16 15 15 14 13 12 14 16 18 20 20 20
27 25 21 20 19 18 16 16 17 16 16 15 14 14 14 18 20 21 22 22 22 20
23 21 19 18 17 18 18 17 16 16 15 14 14 16 20 24 23 21 20 19 19 18
20 20 19 18 19 18 17 16 16 15 14 14 12 21 24 24 23 22 20 18 18 19
28 28 26 20 20 18 17 16 14 13 12 12 19 22 22 23 23 22 20 19 19 20
33 31 25 19 17 16 15 13 12 12 13 14 18 20 21 22 22 20 18 18 18 18
29 26 22 19 15 13 12 12 12 14 13 11 14 18 18 21 21 19 18 18 18 18
25 18 15 13 13 13 13 13 13 13 12 16 11 14 16 19 20 20 19 19 19 20
16 14 13 12 12 13 13 12 11 10 10 10 12 12 14 17 20 20 20 20 19 21

GFSNIL_sfc_30mbdewp_021.txt.gz
Dewpoint
50 46 44 42 38 35 32 30 30 28 26 26 25 25 24 23 22 20 21 20 21 21
45 43 41 39 35 33 30 31 27 26 25 24 23 23 22 21 17 18 20 20 21 21
43 42 39 34 32 31 29 26 26 24 22 21 20 20 20 18 18 17 19 20 20 20
41 38 35 33 31 31 27 25 24 24 23 20 18 17 18 18 17 16 17 19 20 21
38 36 34 31 29 26 25 24 23 21 19 17 17 15 15 14 15 15 17 18 19 20
35 33 29 26 24 24 23 21 21 18 17 16 15 14 13 13 14 17 18 20 20 20
31 27 24 24 22 22 22 19 18 17 17 16 15 14 18 21 22 22 22 21 20 20
27 26 24 23 22 22 22 20 17 16 15 15 16 18 21 24 23 22 21 20 19 19
25 25 26 26 25 25 18 17 16 15 14 13 19 25 26 25 23 22 20 19 20 20
28 30 29 27 24 22 19 16 15 14 14 17 23 24 24 24 22 21 20 19 19 19
32 31 31 31 31 28 25 21 19 13 14 18 23 23 22 24 21 20 19 19 18 18
35 34 33 31 29 28 26 18 13 15 14 17 20 19 20 22 20 20 20 19 20 21
33 31 29 27 22 14 13 14 14 13 12 15 11 16 16 19 20 19 20 20 21 22
28 23 20 15 14 13 13 12 10 10 10 11 12 13 14 16 19 19 20 20 20 21

GFSNIL_sfc_30mbdewp_024.txt.gz
Dewpoint
57 52 52 49 46 42 38 37 37 33 30 29 27 25 24 23 22 21 20 19 21 21
51 50 49 47 43 40 39 37 34 31 30 29 28 26 24 22 21 20 21 20 21 22
49 49 47 45 43 39 36 33 30 30 30 29 26 24 23 20 18 18 20 21 20 21
48 46 45 43 41 36 33 30 30 29 29 28 25 22 20 19 18 17 18 20 20 20
45 44 42 40 37 33 29 29 29 28 27 26 24 23 22 19 17 16 17 18 20 20
43 42 40 37 33 30 29 29 29 27 24 20 18 16 15 15 15 16 18 20 20 20
41 39 36 32 31 29 29 29 29 29 27 23 19 15 16 19 21 22 21 21 20 20
33 29 28 28 27 28 28 27 27 29 26 24 22 24 23 23 22 20 19 20 19 19
28 28 30 30 28 27 28 28 27 23 21 22 26 28 27 24 21 20 19 19 19 19
31 29 28 28 29 28 28 27 24 22 19 24 26 26 26 25 21 19 19 19 19 18
32 31 32 32 31 30 28 26 27 25 27 28 28 26 25 23 20 19 20 19 19 19
35 34 34 33 32 32 32 32 30 28 25 25 23 22 23 21 20 19 19 20 20 22
34 34 33 33 32 32 31 25 18 13 13 18 17 20 18 22 20 18 19 20 21 22
33 32 30 28 26 21 16 13 12 11 12 13 12 13 15 16 19 18 20 20 20 20

GFSNIL_sfc_30mbdewp_027.txt.gz
Dewpoint
61 58 55 53 53 51 48 45 41 39 37 36 34 30 27 25 23 22 21 20 20 21
60 56 54 53 51 50 48 42 41 39 35 34 32 30 28 26 22 22 21 21 22 22
57 55 53 50 48 45 42 41 38 35 34 33 32 30 28 24 21 21 22 22 21 21
53 52 49 48 45 42 41 40 37 35 34 31 29 26 25 25 23 23 22 21 20 20
49 48 47 46 43 40 39 37 35 33 31 29 28 28 27 24 22 21 21 23 23 21
47 46 46 44 40 39 36 35 33 31 29 28 27 27 28 30 27 23 22 19 19 20
44 44 42 40 38 35 34 32 30 27 27 27 28 28 28 27 23 24 22 22 21 20
40 38 38 35 34 33 33 32 31 30 31 30 30 29 27 26 24 22 20 20 19 20
33 32 32 30 30 29 30 31 32 32 32 32 33 34 32 26 21 19 19 19 19 19
32 31 30 31 32 32 32 31 30 31 32 32 33 31 30 25 21 19 19 19 19 18
33 33 34 33 33 32 32 31 31 31 32 32 33 34 33 28 20 19 19 19 19 20
35 34 34 33 32 32 31 31 32 32 32 32 32 32 30 22 19 18 19 20 21 22
35 33 33 33 33 33 33 32 32 30 30 31 26 24 22 23 19 18 19 20 20 22
34 33 33 33 32 31 29 26 20 14 15 12 14 15 16 18 19 18 20 20 20 20

GFSNIL_sfc_30mbdewp_030.txt.gz
Dewpoint
61 60 58 56 56 55 53 52 49 45 44 41 40 38 35 35 31 27 26 22 22 21
56 59 57 56 55 55 53 51 46 44 43 41 39 36 35 32 29 28 28 27 23 22
51 57 57 54 54 53 51 47 45 43 41 40 37 34 31 28 26 25 26 26 23 22
51 54 54 53 51 49 46 44 43 41 40 37 35 31 29 26 24 24 24 24 23 22
51 50 51 50 46 43 43 40 40 39 37 34 31 27 26 25 27 28 28 27 27 25
49 48 47 46 42 41 40 39 39 37 33 30 29 28 28 28 29 29 30 30 30 26
45 46 45 42 40 38 38 36 34 32 30 30 30 31 32 31 30 30 29 28 26 25
42 42 39 37 35 34 32 31 31 31 32 32 33 33 33 32 31 31 28 27 25 23
34 34 34 33 33 33 32 33 33 33 34 34 34 34 32 28 27 27 26 27 26 23
31 31 32 32 33 33 33 33 34 34 34 35 36 35 33 31 29 29 28 23 19 19
33 34 34 34 33 33 33 33 33 33 33 33 35 35 34 32 28 25 24 21 21 22
35 34 33 32 32 32 32 32 32 32 32 31 32 34 31 27 20 19 19 20 21 22
33 33 32 32 32 32 32 31 31 31 32 33 32 33 31 22 18 17 19 20 20 22
33 33 32 32 32 31 30 29 29 28 26 25 18 19 19 25 19 18 20 20 20 20

GFSNIL_sfc_30mbdewp_033.txt.gz
Dewpoint
47 58 60 59 58 58 57 56 56 54 53 51 48 46 44 42 40 37 34 30 27 26
44 50 56 57 58 58 57 56 55 53 51 49 47 45 43 41 38 35 33 32 30 29
47 48 53 56 56 56 56 54 51 49 48 47 45 43 42 39 35 32 32 30 28 27
49 51 53 52 53 53 52 49 48 47 45 44 42 41 40 38 35 31 28 27 26 25
49 50 50 50 50 48 48 45 45 43 42 41 39 39 37 33 29 28 27 29 29 30
47 48 48 47 45 44 43 42 41 40 38 37 34 31 29 28 30 31 32 32 32 30
45 46 45 43 41 41 41 40 39 37 33 32 30 30 31 32 32 32 32 32 31 30
40 40 38 38 37 36 35 33 33 33 33 34 33 33 33 33 32 32 32 32 31 31
33 34 35 34 35 35 34 34 34 34 35 35 36 37 35 32 30 29 29 29 30 30
33 34 34 34 34 34 35 36 36 36 36 36 36 36 34 32 31 31 30 29 29 28
34 34 34 34 34 34 34 34 34 34 35 35 36 36 35 33 30 29 29 28 27 28
34 33 33 32 32 33 32 32 32 32 32 32 33 34 33 29 27 27 26 27 24 23
33 32 31 31 31 32 32 31 32 31 32 33 32 30 30 26 19 20 19 21 20 22
32 32 31 31 31 31 30 30 29 29 29 29 29 31 28 22 19 18 20 20 19 20

GFSNIL_sfc_30mbdewp_036.txt.gz
Dewpoint
42 43 46 55 57 56 55 58 59 59 59 58 57 56 55 52 49 46 43 40 37 33
44 44 45 48 53 56 56 57 57 58 57 58 56 55 53 52 50 48 46 43 39 33
46 47 48 49 52 55 55 56 57 57 57 56 54 53 51 50 49 46 44 41 35 32
46 49 49 51 51 52 53 54 54 54 53 53 50 49 48 47 44 42 38 36 35 33
46 48 49 50 50 50 51 50 50 49 49 48 47 46 45 43 41 38 36 35 32 29
45 47 48 48 47 47 46 45 44 45 44 44 43 42 42 39 36 32 32 32 32 33
43 44 44 43 43 43 43 42 41 40 39 37 37 35 32 33 34 35 34 34 34 33
38 39 39 38 38 37 36 36 35 35 34 34 33 33 33 34 34 33 33 32 32 32
36 36 36 36 36 36 36 36 36 36 36 36 36 36 35 34 33 32 32 31 31 32
35 35 35 35 35 36 36 37 37 37 37 37 38 37 36 34 33 32 31 30 30 30
34 34 34 34 34 34 34 34 34 35 36 36 37 37 35 33 31 30 30 30 29 29
34 34 33 32 32 33 32 32 31 32 32 32 32 34 33 30 29 27 26 27 27 25
33 32 31 32 31 32 32 31 32 31 31 32 31 31 29 24 25 23 21 20 20 22
34 33 32 32 32 32 31 31 30 30 30 30 32 30 25 21 18 18 19 18 16 17

GFSNIL_sfc_30mbdewp_042.txt.gz
Dewpoint
44 44 44 44 45 45 47 51 55 59 60 60 60 61 61 60 58 57 53 52 50 47
43 45 46 46 47 48 50 53 54 55 58 59 60 60 60 59 58 58 55 54 52 48
43 45 47 49 50 50 50 51 51 53 54 55 57 59 59 58 57 56 54 53 51 49
44 45 48 49 48 48 49 49 50 50 50 51 52 54 54 53 53 53 51 50 50 43
43 45 45 44 45 47 47 47 46 46 46 47 47 49 49 48 47 48 46 44 42 39
41 41 41 41 40 41 42 41 39 39 39 39 40 42 41 42 43 42 41 40 39 38
39 39 39 39 39 39 38 37 36 36 35 35 35 36 37 37 36 36 36 36 36 35
38 37 37 37 38 38 38 38 37 36 36 36 37 36 36 36 35 35 35 35 35 35
36 36 37 37 37 37 38 38 38 38 37 37 37 37 36 35 34 33 33 32 32 33
35 34 35 35 35 36 35 35 35 36 37 37 37 37 36 34 32 31 31 31 31 32
34 34 35 35 34 34 33 33 33 33 33 34 36 36 35 32 31 31 31 31 31 30
33 34 33 32 32 33 32 31 31 31 31 32 33 34 33 30 29 29 29 30 30 29
34 33 32 32 32 32 31 31 31 30 31 30 29 28 26 27 27 25 25 24 23 20
34 33 33 32 31 32 30 29 27 28 30 31 28 26 26 22 21 18 17 16 17 22

GFSNIL_sfc_30mbdewp_045.txt.gz
Dewpoint
43 44 46 46 46 48 50 53 54 55 58 59 59 60 60 60 59 58 56 54 51 49
42 44 47 49 50 50 50 51 51 53 53 56 58 59 59 59 58 58 57 55 54 52
44 46 49 48 48 48 49 49 49 50 50 52 53 56 57 57 56 56 55 55 54 51
43 45 46 44 46 47 47 46 46 47 47 47 49 51 52 52 52 52 52 51 51 48
40 41 41 40 40 42 41 39 38 38 39 40 42 43 46 46 46 47 47 46 45 42
39 39 39 39 39 38 38 37 36 35 35 36 37 39 39 40 40 41 41 40 40 39
37 37 38 38 38 38 37 36 36 36 36 36 36 36 36 37 37 36 36 36 36 36
37 37 37 37 38 38 38 37 37 37 37 37 37 37 35 35 35 35 35 35 36 36
36 36 36 36 36 37 37 38 38 38 37 36 36 37 36 34 33 33 33 32 33 34
35 35 35 36 35 35 35 35 34 35 36 36 36 36 36 34 32 31 31 31 31 31
35 35 35 34 34 34 33 33 33 33 34 36 36 36 34 32 30 30 30 30 30 29
34 34 33 33 32 32 31 30 31 32 32 32 33 31 31 29 27 27 27 28 28 28
34 33 32 32 31 32 31 30 30 29 29 29 26 25 25 27 26 23 24 25 21 22
34 33 32 32 32 31 29 28 27 28 29 29 25 26 26 23 21 18 17 17 19 23

GFSNIL_sfc_30mbdewp_048.txt.gz
Dewpoint
43 44 46 48 49 50 50 51 51 52 54 56 58 58 59 59 59 58 58 57 54 53
44 45 48 48 48 48 49 49 50 50 51 52 53 56 58 58 57 57 57 56 55 52
45 48 47 47 46 47 47 46 47 47 48 49 50 52 54 54 54 54 54 54 54 53
41 42 42 42 43 43 40 40 39 41 43 44 45 46 48 48 48 49 49 48 49 48
39 40 39 39 38 38 37 37 36 37 37 38 40 40 42 43 43 44 44 43 43 41
38 38 38 38 38 37 37 36 36 36 36 36 37 37 38 38 38 38 38 39 39 38
37 37 38 38 38 38 37 36 37 37 37 37 36 35 35 35 35 36 36 36 36 36
37 37 37 37 37 38 38 38 38 37 36 36 36 36 34 34 34 34 34 35 36 38
36 36 36 36 37 36 36 36 37 36 35 36 36 36 36 34 33 33 33 32 33 34
35 35 36 36 35 35 34 35 35 35 37 36 36 36 35 34 32 31 31 30 30 30
35 35 35 35 34 33 33 33 33 33 34 35 35 35 34 32 29 28 28 28 28 27
35 34 34 33 32 32 31 31 31 32 32 30 28 29 29 26 25 25 25 26 26 24
35 34 32 32 31 31 30 30 29 28 28 29 25 26 27 24 23 21 21 19 18 25
34 33 32 31 31 29 28 27 28 28 29 25 25 26 25 24 22 18 18 19 20 23

GFSNIL_sfc_30mbdewp_054.txt.gz
Dewpoint
44 44 46 48 49 48 48 49 49 48 49 49 52 53 57 58 58 57 57 57 56 55
46 46 47 47 47 46 45 45 45 46 46 47 48 50 54 55 54 55 54 54 55 54
43 44 44 45 43 41 40 40 40 41 42 42 43 46 48 49 50 49 48 49 48 47
40 40 40 39 39 38 37 37 38 38 39 39 39 41 43 43 45 45 44 43 43 42
39 39 38 38 37 37 37 37 37 37 36 37 37 37 39 39 39 39 39 39 39 38
37 37 37 37 37 37 37 37 37 37 35 35 35 35 35 35 36 36 36 36 35 35
37 37 37 37 37 37 37 36 36 36 36 36 35 34 35 35 35 35 36 37 37 37
37 37 37 37 37 37 36 36 36 36 36 36 36 35 34 35 35 35 34 34 35 36
37 37 37 37 36 36 36 36 36 36 35 36 36 36 35 34 33 32 31 30 31 32
36 36 36 36 35 35 35 35 35 36 35 34 35 35 34 33 30 26 25 25 27 28
36 36 36 35 34 34 34 34 33 32 30 31 32 32 31 28 24 24 24 23 22 22
36 35 35 33 33 33 32 32 30 28 25 26 27 28 27 24 22 20 20 20 24 24
36 35 33 32 32 32 31 30 28 26 25 28 25 26 24 20 18 15 16 19 21 25
35 34 33 32 31 30 28 27 26 26 25 23 25 24 25 26 21 19 18 20 21 23

GFSNIL_sfc_30mbdewp_057.txt.gz
Dewpoint
44 44 46 48 49 48 48 48 47 48 48 48 49 51 55 57 58 58 57 57 57 56
46 46 47 47 47 46 44 43 44 44 45 45 46 49 52 53 54 53 53 53 54 54
43 44 45 45 43 40 39 39 40 41 41 42 43 45 48 49 49 48 48 48 48 47
41 40 40 40 39 38 38 38 38 39 39 39 40 41 43 44 44 44 43 43 43 42
39 39 38 38 37 37 37 37 37 37 37 37 37 38 39 39 39 39 38 39 39 38
38 38 38 37 37 37 37 37 37 36 35 35 36 36 36 37 37 37 37 36 36 36
37 37 37 37 37 37 37 36 36 37 36 35 35 36 36 36 36 36 37 38 38 36
37 37 38 38 37 36 36 36 36 36 36 36 36 35 35 36 35 35 34 34 35 35
37 37 37 37 37 36 36 36 36 35 36 36 36 35 36 34 33 32 33 32 32 30
37 37 37 36 36 36 36 36 36 35 35 35 36 35 34 31 28 27 28 28 28 27
36 36 36 35 35 35 35 34 33 32 32 33 34 33 31 27 25 25 24 23 24 26
36 36 35 34 34 34 33 32 30 28 28 28 29 28 27 24 22 22 22 23 25 26
36 35 34 33 33 33 32 31 28 27 26 28 26 26 24 22 17 16 16 19 21 26
36 35 34 33 32 31 30 28 26 26 24 24 25 26 28 24 19 18 18 19 20 23

GFSNIL_sfc_30mbdewp_060.txt.gz
Dewpoint
44 44 44 46 47 47 48 48 48 48 48 49 49 50 52 54 56 58 58 58 58 57
45 45 45 48 48 48 46 44 44 45 45 46 47 49 51 53 54 54 54 53 53 52
44 46 47 47 46 44 42 42 42 43 43 44 45 47 49 50 49 49 49 49 49 48
42 43 44 44 43 41 40 40 40 41 41 41 42 44 46 46 46 45 45 45 44 44
41 41 41 41 40 39 39 39 39 39 39 39 40 41 42 42 42 42 42 41 42 41
39 40 40 40 39 39 39 39 38 38 37 37 38 39 39 39 39 39 38 38 38 38
38 39 39 39 39 38 38 38 38 38 37 37 37 38 38 38 38 38 38 38 38 37
38 38 39 38 38 38 38 38 37 37 37 37 37 37 37 37 37 36 36 36 36 37
38 38 38 38 37 37 37 36 36 37 36 36 36 38 37 36 35 35 34 34 33 32
37 37 38 38 37 37 37 37 36 36 36 36 36 36 35 33 33 33 33 32 32 29
37 37 37 36 36 36 36 36 35 35 35 35 34 34 30 29 29 29 28 28 30 31
37 37 36 35 35 35 35 34 33 32 32 33 32 30 27 27 27 27 26 27 26 25
37 36 35 35 34 34 34 32 31 30 31 30 31 28 26 23 17 17 15 17 22 26
37 36 35 34 33 33 32 31 31 30 29 29 28 25 25 21 15 14 15 16 17 20

GFSNIL_sfc_30mbdewp_063.txt.gz
Dewpoint
44 44 44 45 45 45 46 47 49 48 48 48 48 49 50 52 53 55 56 57 57 57
44 44 44 46 47 47 47 46 45 45 45 46 46 47 48 51 51 54 54 53 53 52
44 45 46 46 46 46 44 43 43 44 44 44 44 46 48 49 50 50 50 50 50 49
43 43 44 45 45 44 42 42 41 41 42 42 42 44 46 47 47 47 46 46 45 45
42 42 42 42 42 41 41 40 40 40 40 40 41 42 43 43 44 44 44 43 43 42
40 41 41 41 40 40 40 40 39 39 38 38 39 40 40 40 40 40 40 39 39 39
39 39 39 40 40 39 39 39 39 39 38 38 38 38 39 39 39 39 39 38 38 37
39 39 39 39 39 39 38 38 38 38 38 38 37 37 38 38 38 38 37 36 36 37
38 38 39 38 38 38 38 37 37 37 37 37 36 38 38 37 37 36 35 34 34 33
38 38 38 38 38 37 37 37 37 36 36 36 36 38 36 36 36 35 34 34 32 28
38 37 37 38 37 37 37 37 36 36 36 36 35 35 33 33 33 31 30 30 32 32
37 37 37 37 36 36 36 35 35 35 35 35 34 32 28 28 28 27 27 28 26 25
37 37 37 36 36 35 35 34 34 33 33 33 31 28 26 26 22 23 18 20 24 27
37 37 37 36 35 35 33 32 32 31 31 31 31 27 26 23 15 14 14 16 17 20

GFSNIL_sfc_30mbdewp_066.txt.gz
Dewpoint
45 45 45 45 45 46 46 48 48 48 48 48 47 48 49 50 52 54 54 55 55 56
45 45 44 47 47 48 47 45 44 45 45 45 46 46 47 49 51 53 53 52 52 52
45 46 46 47 47 46 45 44 43 44 44 44 44 45 46 48 49 49 50 50 50 49
44 45 46 46 45 44 43 42 42 41 42 42 42 43 44 46 46 47 46 46 46 45
43 43 43 43 43 42 42 41 40 40 40 40 40 41 41 43 43 44 44 44 44 42
42 41 41 41 41 41 40 40 40 39 38 38 39 39 40 40 40 40 39 39 39 39
40 40 40 40 40 40 40 40 39 39 38 38 38 38 39 39 39 39 39 39 38 38
39 39 39 39 39 39 39 39 38 38 38 38 38 38 38 39 39 38 37 37 37 38
39 39 39 39 39 38 38 38 37 37 37 37 36 38 39 38 37 37 35 34 34 34
39 38 39 38 38 37 37 37 37 37 36 36 37 39 38 38 36 35 34 33 30 28
38 38 38 38 37 37 38 37 37 36 36 36 36 37 35 36 34 33 32 31 30 29
38 38 37 37 37 37 37 37 36 36 36 35 35 33 32 29 28 26 26 28 29 29
38 37 37 36 37 36 36 35 35 34 35 34 33 31 28 28 27 25 24 23 26 27
38 37 37 36 36 35 35 34 33 32 32 31 30 29 27 25 17 16 15 17 18 23

GFSNIL_sfc_30mbdewp_069.txt.gz
Dewpoint
49 47 47 46 45 45 46 49 50 49 48 47 47 47 48 49 50 51 53 53 54 54
46 45 46 46 47 47 48 46 46 46 45 45 45 46 47 47 49 51 53 52 52 52
45 45 46 47 47 47 45 44 44 44 44 44 44 45 45 47 49 48 50 50 50 49
45 46 46 46 46 45 43 43 42 42 42 42 42 42 43 46 46 46 46 46 47 47
44 45 45 45 44 43 42 41 41 40 40 40 40 41 41 44 43 45 45 45 45 43
42 42 43 43 42 41 41 40 40 39 39 39 39 39 40 40 40 40 39 40 40 40
41 41 41 41 40 40 40 40 39 38 38 38 38 38 39 39 39 38 38 38 38 38
40 40 40 40 39 39 39 39 39 38 38 38 38 38 38 39 39 38 38 38 37 37
39 39 39 39 39 38 38 38 38 37 38 37 37 38 39 39 39 37 36 35 35 34
39 38 38 39 38 37 37 37 37 37 37 37 38 39 40 39 37 36 34 33 29 30
39 38 38 38 37 37 37 37 36 36 37 36 37 38 38 37 35 34 34 31 28 25
39 38 38 37 37 37 37 37 37 36 36 35 36 36 36 34 32 31 29 29 30 30
38 38 37 37 37 36 36 36 36 35 36 35 34 34 31 28 26 23 23 26 26 29
38 37 37 37 36 36 36 35 34 34 34 34 33 32 29 28 24 22 21 21 23 24

GFSNIL_sfc_30mbdewp_072.txt.gz
Dewpoint
60 57 55 54 52 51 51 51 51 50 49 49 49 48 48 48 49 50 50 51 52 53
52 53 51 50 48 48 48 49 49 49 47 47 46 46 46 46 47 50 51 52 53 52
46 46 47 47 46 46 46 46 46 45 45 45 44 44 45 45 47 48 49 50 50 49
45 46 47 47 47 46 44 44 44 43 43 43 42 42 43 43 46 46 46 46 46 48
46 46 46 46 45 44 43 42 42 42 41 41 41 41 41 42 45 44 45 45 45 45
44 44 44 44 43 42 41 41 40 40 39 39 39 39 40 40 41 40 41 41 42 41
42 42 42 42 41 41 41 40 39 39 38 38 38 38 39 39 39 38 38 38 38 39
42 41 41 41 40 40 40 40 39 38 38 38 38 38 38 39 39 39 38 38 37 38
40 40 40 39 39 39 38 38 38 38 38 38 37 38 39 39 39 39 38 37 36 36
39 39 39 39 38 38 37 37 37 37 37 37 37 39 39 40 38 37 36 35 33 32
39 39 38 38 38 37 36 36 36 36 36 37 37 40 39 39 36 35 34 32 30 29
39 38 38 38 37 37 36 36 36 36 36 36 36 39 38 36 34 34 33 30 28 25
39 38 38 37 37 36 37 36 36 36 36 36 36 37 36 34 31 31 28 28 29 32
39 38 37 37 36 36 36 36 36 35 35 35 35 35 34 31 26 24 22 24 25 27

GFSNIL_sfc_30mbdewp_075.txt.gz
Dewpoint
61 61 59 58 58 57 56 54 53 52 50 49 50 49 49 48 48 49 49 49 50 52
56 58 56 55 54 53 52 52 51 49 48 47 47 46 46 46 46 47 48 50 51 51
47 50 53 51 50 50 49 50 49 47 46 45 45 44 45 45 46 47 48 49 50 49
45 46 47 48 47 46 45 46 46 45 44 43 43 42 42 43 43 46 46 46 46 46
46 46 46 46 46 45 44 44 43 43 42 42 41 41 41 41 42 45 44 44 45 45
45 45 45 45 44 43 42 42 41 41 40 40 40 40 40 40 40 41 40 41 43 42
43 44 44 43 43 42 41 40 40 39 39 39 39 38 39 39 39 38 38 38 38 39
42 42 42 42 41 41 40 40 39 38 38 38 38 38 38 38 38 38 38 38 38 38
41 41 41 40 40 39 39 39 38 38 38 38 38 38 40 39 38 39 39 38 37 38
41 40 40 39 39 38 38 37 37 37 37 37 37 38 40 40 40 38 38 37 35 34
40 39 39 38 38 37 36 36 36 36 36 36 37 38 40 40 38 37 36 35 33 32
39 39 38 38 37 36 36 36 36 36 36 36 36 38 39 38 35 35 34 31 30 28
39 39 38 37 37 36 36 36 35 35 35 36 36 38 38 37 34 33 32 31 29 30
39 39 38 37 36 36 36 36 36 35 35 36 36 36 38 37 31 31 30 28 26 27

GFSNIL_sfc_30mbdewp_078.txt.gz
Dewpoint
60 61 60 59 59 59 58 58 57 56 55 52 51 50 50 49 49 49 48 48 49 50
53 57 58 57 58 58 57 56 55 53 50 49 49 48 47 46 45 46 47 47 49 50
45 48 54 54 54 54 52 52 51 50 48 47 46 45 45 45 45 45 47 48 49 49
45 46 48 51 50 49 49 49 49 47 46 44 44 43 43 43 43 44 45 45 46 46
45 46 46 47 47 46 46 46 45 44 43 42 42 41 41 41 41 42 43 44 44 44
45 45 45 45 45 44 44 43 43 42 41 41 40 40 39 39 40 40 40 40 41 43
44 44 44 44 43 43 42 41 40 40 40 39 39 38 38 38 38 38 38 38 38 39
43 43 43 43 42 41 41 40 39 39 38 38 38 38 38 38 38 38 38 38 38 38
42 42 41 41 41 40 39 39 38 38 38 37 38 39 40 39 38 38 38 38 38 39
41 41 40 40 39 39 38 38 38 37 37 37 37 39 39 40 39 38 38 38 37 35
40 40 40 39 38 37 37 37 36 36 36 36 36 39 39 39 39 37 37 37 36 34
40 39 39 38 38 37 36 36 36 36 36 36 36 38 39 39 36 35 35 34 33 32
40 39 39 38 37 36 36 35 35 35 35 35 35 37 39 38 35 34 34 33 30 33
39 39 39 37 36 36 36 35 35 35 36 36 36 36 38 39 35 34 32 32 30 29

GFSNIL_sfc_30mbdewp_084.txt.gz
Dewpoint
62 61 60 60 61 61 60 60 61 62 62 61 61 59 58 58 58 57 56 54 53 52
52 58 60 61 61 61 61 61 61 61 62 61 59 58 57 55 53 53 52 51 51 49
46 47 52 56 58 59 60 60 59 59 59 58 56 55 53 50 49 48 48 49 48 49
45 46 48 51 53 55 56 56 57 56 54 53 51 50 49 47 46 46 46 47 47 47
45 46 46 47 49 51 53 54 53 52 51 49 47 46 46 45 44 44 44 45 46 45
44 45 45 46 46 47 48 50 51 50 48 46 45 44 43 43 43 43 43 43 43 44
41 44 45 45 45 45 46 46 47 46 45 44 43 42 41 41 41 41 41 41 41 42
40 42 44 44 45 44 44 44 44 43 42 41 41 41 40 40 40 40 40 40 40 41
39 40 42 44 44 44 43 42 42 41 41 40 39 40 40 40 39 39 38 38 39 39
39 40 41 42 43 43 43 42 41 41 40 40 39 41 41 40 39 39 39 40 40 40
39 39 41 41 42 42 42 42 41 41 40 40 40 42 42 42 40 41 39 39 39 40
38 38 40 41 41 42 42 41 41 41 40 40 40 41 42 42 40 38 37 37 39 38
38 38 39 41 42 42 41 41 41 40 40 40 40 40 41 40 38 36 36 36 37 37
37 38 38 40 41 41 40 39 39 39 38 38 39 38 40 40 37 36 35 35 34 35

GFSNIL_sfc_30mbdewp_087.txt.gz
Dewpoint
60 60 59 59 59 59 58 58 59 61 61 62 62 61 60 59 59 58 58 58 58 56
58 60 59 60 60 60 60 61 60 61 61 62 61 61 60 58 58 58 57 57 55 53
46 47 52 58 60 60 61 61 61 61 61 61 61 59 59 57 56 55 53 52 51 50
46 46 47 49 52 56 57 59 59 59 60 59 58 57 56 54 52 51 49 49 49 49
45 46 46 46 48 51 53 55 56 57 57 56 55 55 54 52 49 48 47 47 48 47
42 44 45 46 46 47 49 52 53 53 52 51 51 50 49 47 46 46 46 46 46 46
39 40 44 45 46 46 46 48 50 51 50 48 46 45 44 44 44 44 44 44 44 44
39 40 41 44 45 45 45 45 46 46 45 44 44 43 42 42 42 42 41 42 42 42
38 39 41 41 43 45 44 44 44 43 43 42 41 41 42 42 41 41 41 40 40 41
38 39 40 41 41 43 44 44 43 43 42 42 41 40 42 41 41 40 40 40 40 40
37 39 39 40 41 42 43 44 44 43 42 42 41 41 42 41 41 41 41 41 41 41
36 37 39 39 41 42 43 43 44 43 42 42 42 42 43 42 42 40 38 38 39 40
35 36 37 39 39 40 42 42 43 43 43 42 42 41 43 43 40 38 37 38 38 38
33 35 36 37 38 40 41 42 41 42 41 41 41 41 42 42 39 38 37 36 36 37

GFSNIL_sfc_30mbdewp_090.txt.gz
Dewpoint
60 59 59 58 58 59 58 58 58 61 61 62 61 61 61 60 59 59 58 58 57 57
59 59 59 59 58 58 59 60 59 60 60 60 60 61 60 60 59 58 58 57 57 57
47 49 51 57 59 60 60 60 60 60 60 60 60 60 60 59 59 58 57 57 56 54
46 46 47 48 50 53 56 57 59 60 60 60 60 60 59 58 57 56 55 54 53 52
44 45 46 46 47 48 50 53 55 57 59 59 59 58 58 56 55 54 53 51 51 50
40 40 43 45 46 46 47 49 52 54 55 56 56 56 56 55 53 52 50 49 49 48
39 40 41 42 45 46 46 46 48 51 52 52 50 50 51 49 48 47 47 47 47 47
39 39 40 41 42 45 45 45 46 47 47 46 46 46 46 45 45 45 45 45 45 45
39 39 40 40 41 42 44 45 44 44 45 44 43 43 44 44 44 43 43 42 42 42
37 38 39 40 40 42 42 44 44 43 43 43 43 42 44 44 42 42 41 41 41 40
36 36 38 39 40 41 42 43 43 44 43 42 42 42 42 43 41 41 40 40 40 39
35 35 36 36 37 39 40 41 42 43 43 42 42 42 42 42 40 39 39 40 40 40
32 34 35 36 36 37 38 40 41 42 43 43 42 42 43 42 40 39 38 38 38 40
28 29 31 33 34 36 37 38 40 41 41 42 42 42 43 43 40 39 38 37 37 38

GFSNIL_sfc_30mbdewp_096.txt.gz
Dewpoint
54 59 58 58 59 59 59 59 59 60 60 60 60 60 60 60 60 60 60 59 58 58
51 55 57 58 58 57 58 59 59 59 59 60 60 60 60 60 59 59 59 59 59 58
49 50 51 53 55 57 58 58 58 59 59 59 59 59 60 59 59 58 58 58 58 58
43 45 47 47 47 48 50 52 55 56 58 59 59 59 59 59 58 58 58 57 57 57
39 40 40 41 43 45 46 46 48 51 54 56 59 59 58 58 58 58 57 57 56 56
39 39 39 40 41 42 43 45 45 47 49 51 53 56 57 59 58 58 58 57 56 56
38 38 39 39 40 41 42 43 44 45 45 47 48 50 52 54 55 56 56 56 56 56
36 37 37 38 39 40 41 41 42 43 44 44 45 46 47 48 50 52 53 53 53 53
33 34 35 36 38 38 38 39 40 40 41 42 43 44 45 45 46 47 48 49 50 50
30 31 32 34 34 35 37 37 38 39 40 41 42 43 44 44 44 45 46 46 46 46
28 29 29 31 31 32 34 35 37 37 39 40 41 43 44 44 43 43 43 44 44 44
26 26 27 27 29 30 31 33 34 37 38 39 40 42 43 43 43 41 40 40 42 43
26 25 25 25 26 29 29 29 32 35 34 35 37 39 42 43 43 41 40 40 39 41
25 25 24 25 27 26 27 27 29 29 30 31 33 35 39 41 42 41 40 40 40 39

GFSNIL_sfc_30mbdewp_099.txt.gz
Dewpoint
52 55 58 58 59 59 59 59 60 60 61 61 60 60 60 59 60 60 59 59 59 59
50 51 52 53 55 57 57 58 59 59 59 59 60 60 59 59 58 59 58 58 59 58
47 48 48 49 49 49 51 53 57 58 58 59 59 59 59 59 59 59 59 59 58 58
42 43 43 43 45 46 47 48 49 53 55 56 58 59 58 58 59 58 58 58 58 57
39 39 40 40 40 42 42 45 45 46 48 51 53 56 58 58 58 57 57 57 57 56
37 37 38 39 39 41 41 42 43 44 45 46 47 49 51 54 56 57 57 57 57 56
34 35 36 37 38 39 40 40 40 41 42 43 44 45 46 48 50 52 54 56 57 57
32 33 33 34 36 37 38 38 39 39 40 41 42 43 44 44 44 46 48 52 53 54
29 30 30 32 32 32 34 35 37 37 38 39 40 42 44 44 44 44 45 47 49 50
28 28 28 29 30 30 31 32 33 35 36 37 39 41 42 43 44 43 43 44 45 46
26 25 25 25 26 27 30 30 31 32 35 36 35 36 40 41 43 43 42 42 42 43
25 25 25 24 25 26 29 28 28 31 32 32 33 35 33 38 41 41 41 41 41 41
24 24 24 24 24 25 25 26 28 29 29 30 30 33 33 34 39 39 40 41 41 41
22 22 23 23 24 24 24 25 26 26 27 28 30 31 31 32 35 38 39 40 40 40

GFSNIL_sfc_30mbdewp_102.txt.gz
Dewpoint
51 52 53 53 56 57 56 58 59 60 60 60 60 60 60 59 59 59 59 59 59 58
48 48 49 50 50 50 51 52 54 58 58 59 60 60 60 59 58 59 59 59 59 58
44 45 45 45 45 46 48 49 49 51 53 55 57 59 59 59 59 58 58 58 58 58
39 41 42 41 41 42 43 44 46 47 49 50 52 54 56 58 58 58 57 58 57 57
36 37 37 39 39 40 40 41 42 43 44 45 46 47 49 51 54 57 57 57 57 57
33 33 34 36 37 38 38 38 39 40 40 41 42 44 45 46 47 50 51 55 57 56
30 31 31 33 33 34 36 36 37 37 38 39 40 42 43 44 44 44 45 48 51 53
28 28 28 28 30 31 32 32 34 35 36 37 37 39 42 43 43 43 43 44 46 49
26 26 26 26 27 27 28 30 31 30 32 35 36 36 35 40 41 42 43 42 43 45
26 25 25 26 25 25 26 29 28 29 30 33 34 33 33 33 38 40 41 42 41 42
23 23 24 24 23 23 25 27 27 27 29 30 29 31 31 34 34 37 39 40 40 41
22 22 22 21 22 23 25 25 25 27 28 28 28 30 31 31 33 34 34 35 39 40
22 22 21 21 21 23 24 24 25 25 26 28 27 29 30 29 30 32 33 36 35 37
19 18 19 19 20 21 21 22 22 24 25 26 27 29 30 28 28 30 30 31 35 37

GFSNIL_sfc_30mbdewp_105.txt.gz
Dewpoint
48 48 48 49 50 50 50 51 52 53 58 59 60 60 60 59 59 59 59 58 58 57
45 44 43 44 45 47 48 49 50 50 51 53 54 56 59 59 59 59 59 59 58 58
41 43 43 42 42 42 43 43 45 46 48 49 50 50 52 55 58 58 59 59 59 59
36 38 40 40 39 38 39 40 40 42 43 44 45 47 47 49 50 52 56 57 57 57
30 31 32 33 34 35 34 34 35 35 36 38 40 43 44 44 45 46 48 50 53 57
28 27 28 29 29 30 31 31 32 33 33 34 36 40 42 43 43 43 44 46 47 49
27 26 26 27 27 27 30 29 29 30 31 33 35 35 38 38 40 41 42 43 44 45
27 26 26 26 26 26 28 29 28 28 28 31 33 33 34 34 36 37 39 41 42 43
25 25 25 25 25 25 25 28 27 27 28 29 28 31 31 32 33 33 36 38 40 41
23 23 24 24 23 22 22 25 25 25 26 28 29 29 30 30 32 33 33 34 36 38
19 19 20 20 20 20 22 23 24 25 26 27 27 29 29 29 31 32 33 34 34 34
20 20 20 20 20 21 22 23 23 24 25 26 27 29 29 29 30 30 30 30 31 32
20 20 20 20 20 21 22 22 23 23 24 26 27 28 29 29 28 27 28 28 29 30
19 19 19 20 20 21 22 22 22 22 23 24 26 27 29 29 28 27 27 25 24 25

GFSNIL_sfc_30mbdewp_108.txt.gz
Dewpoint
46 45 45 46 47 47 48 48 48 49 51 52 53 54 55 57 59 59 60 59 59 58
43 43 43 43 43 44 43 43 44 45 47 48 49 49 50 53 54 58 59 59 59 59
39 40 41 40 39 39 39 39 40 41 42 42 44 46 47 48 49 50 51 54 57 58
31 33 32 32 35 36 34 34 33 35 35 37 39 43 43 44 45 46 46 48 49 50
28 25 25 26 26 26 26 26 26 25 26 27 29 32 37 39 41 42 43 44 46 47
22 22 22 23 22 21 23 23 22 23 23 25 27 28 30 30 32 34 36 39 41 43
24 25 24 23 22 21 21 22 21 21 21 23 25 26 29 29 30 30 33 36 38 39
23 23 22 22 21 20 19 20 21 20 19 20 21 21 29 28 27 28 28 28 31 36
17 17 18 18 18 17 18 18 18 18 19 21 20 25 29 29 26 25 25 25 28 30
16 15 16 16 15 16 16 17 18 17 18 18 20 24 28 29 26 26 26 27 28 27
16 16 17 17 17 17 18 19 19 20 20 20 21 25 28 29 27 27 27 26 26 25
17 17 18 18 19 19 19 20 20 20 21 22 22 25 28 29 26 26 25 24 24 25
18 18 18 19 19 21 21 21 21 22 22 22 23 25 27 28 25 23 23 23 23 23
19 18 18 19 21 21 20 20 21 20 20 20 22 24 27 28 26 24 23 22 21 22

GFSNIL_sfc_30mbdewp_111.txt.gz
Dewpoint
47 46 46 45 45 45 45 45 46 47 48 48 48 50 51 54 54 53 57 59 59 58
43 41 40 39 40 40 40 39 41 42 42 43 44 46 47 49 48 49 51 52 51 54
32 33 34 34 33 34 35 35 35 35 36 37 39 42 44 45 45 46 47 48 47 48
26 29 28 26 26 27 28 28 29 28 29 29 31 34 36 36 38 40 41 43 44 45
26 24 22 21 21 21 22 21 21 22 22 23 24 28 29 31 31 33 34 36 38 41
23 23 23 23 23 21 20 20 18 18 18 20 21 23 25 26 26 28 29 31 34 37
21 21 22 22 21 17 16 16 17 17 17 17 18 18 23 24 24 25 26 27 28 30
19 18 17 16 16 16 16 16 16 16 16 17 18 16 26 26 25 23 23 25 24 27
15 14 15 15 14 14 15 16 16 16 17 17 16 20 25 28 27 24 24 25 27 27
14 14 15 15 15 16 16 17 18 18 19 19 19 21 25 28 28 25 26 27 28 26
15 16 16 17 17 17 18 18 19 20 20 20 21 22 25 28 28 27 27 27 26 25
17 17 17 17 18 19 20 20 21 21 21 22 22 23 25 28 28 27 24 23 22 23
18 18 17 18 19 21 21 21 21 22 22 21 21 22 24 27 26 23 22 22 21 22
18 17 17 18 20 21 21 20 21 19 19 18 19 20 23 26 26 25 25 23 22 22

GFSNIL_sfc_30mbdewp_114.txt.gz
Dewpoint
44 43 42 42 42 42 43 42 43 42 43 44 46 47 49 50 49 49 50 51 51 52
38 39 37 36 37 37 36 35 36 36 37 38 41 43 45 46 45 47 47 48 47 48
29 30 30 31 29 29 29 30 30 30 32 31 34 37 39 39 41 40 42 44 44 45
25 25 24 23 23 24 24 23 24 25 26 27 28 32 34 33 34 34 35 37 38 40
25 24 23 23 23 21 20 20 18 18 19 20 22 24 26 27 28 30 32 34 35 35
22 23 22 22 20 17 17 17 18 18 18 18 19 19 24 25 26 26 26 28 30 31
20 19 18 17 17 17 17 17 17 17 18 18 19 20 26 27 28 26 25 26 27 28
16 16 17 17 16 16 17 17 17 18 19 20 19 18 24 27 28 28 26 26 27 28
15 16 16 17 17 17 18 18 19 20 20 20 20 22 24 26 28 28 27 27 28 29
16 16 17 18 19 19 19 19 20 21 21 21 22 23 25 26 28 29 28 28 28 28
17 18 19 19 19 20 20 21 21 22 22 22 23 24 25 26 29 28 28 28 26 26
18 19 19 19 19 20 21 22 22 22 22 23 23 24 24 25 28 28 26 24 23 24
19 19 18 19 19 21 22 22 23 22 23 23 22 24 22 24 27 27 26 25 25 25
19 17 18 18 19 20 21 21 21 21 20 19 20 21 22 24 24 25 25 26 25 24

GFSNIL_sfc_30mbdewp_117.txt.gz
Dewpoint
40 39 38 38 37 37 39 38 40 41 41 43 44 45 48 46 47 48 48 46 47 48
29 32 33 34 33 33 33 31 33 34 34 36 37 39 39 42 40 43 45 44 44 44
27 27 26 26 25 27 26 27 26 27 28 29 31 35 35 36 36 36 38 39 39 42
25 25 25 23 22 21 21 21 21 21 22 22 23 29 29 29 30 32 34 35 36 36
24 23 22 20 18 17 17 18 18 19 19 19 20 24 25 26 28 27 27 28 31 31
19 18 17 17 17 17 17 17 17 18 18 19 20 25 26 28 28 29 28 28 29 29
17 16 16 17 17 17 18 18 18 19 20 21 20 23 26 27 28 28 28 28 29 29
16 16 17 17 17 18 19 19 19 20 21 21 20 21 25 27 28 28 27 28 29 28
15 16 17 18 18 19 19 20 20 21 22 22 21 24 26 27 27 28 28 28 28 29
16 17 19 19 20 19 20 21 21 22 22 22 23 26 26 27 28 28 28 28 28 28
18 18 19 19 19 20 21 21 22 22 22 22 22 25 25 26 27 28 28 28 26 25
19 19 20 19 19 20 21 21 21 22 22 22 23 26 25 24 26 27 27 27 25 26
20 19 18 18 18 19 21 21 22 22 22 24 21 24 23 24 25 26 26 26 26 27
19 18 17 18 18 20 19 19 19 20 20 20 22 23 24 24 24 24 25 27 26 26

GFSNIL_sfc_30mbdewp_120.txt.gz
Dewpoint
35 36 36 36 36 35 35 36 35 38 38 38 39 40 43 43 45 47 45 45 45 46
28 27 27 27 29 30 28 24 27 29 32 32 36 37 39 39 39 40 40 41 44 44
25 26 25 24 22 22 23 24 23 24 25 25 28 31 32 32 34 35 36 37 38 38
24 24 23 20 18 18 19 19 20 21 22 22 25 28 27 27 29 29 29 33 35 35
22 20 18 17 17 17 17 18 18 19 20 20 22 26 28 28 29 28 28 29 30 31
18 17 16 16 17 17 18 18 19 20 20 20 21 25 27 28 28 28 28 28 29 29
16 16 16 17 17 19 19 19 20 21 21 22 21 23 26 28 28 28 28 29 29 29
16 16 17 18 19 20 20 20 21 21 22 22 21 25 27 27 28 28 27 28 29 29
16 16 18 19 19 19 20 21 21 21 22 22 22 27 28 28 27 27 27 27 28 28
16 17 19 19 19 19 20 21 21 21 22 22 22 26 27 27 27 27 27 27 27 26
18 18 19 19 19 19 20 21 21 21 22 22 23 26 26 26 26 27 27 27 26 25
19 18 19 18 18 19 20 20 21 22 22 22 22 26 25 26 25 25 26 26 27 27
19 19 18 18 18 18 20 20 21 20 21 22 21 25 25 26 25 24 24 25 27 27
19 18 17 18 18 19 19 19 19 20 20 20 22 23 24 25 24 24 24 25 24 25

GFSNIL_sfc_30mbdewp_123.txt.gz
Dewpoint
30 33 33 32 32 31 28 30 27 32 36 38 40 39 39 40 42 42 43 44 45 45
27 25 25 24 23 23 24 23 24 26 27 29 35 36 36 36 38 38 39 41 41 43
25 25 23 20 18 19 20 20 21 22 24 25 28 29 30 31 32 33 36 36 36 37
22 21 18 17 17 17 18 19 20 21 21 21 27 28 29 27 29 28 30 31 33 35
20 18 16 16 16 18 18 19 19 20 21 21 24 27 28 28 27 28 28 29 30 29
18 16 16 16 17 18 19 19 20 21 21 21 21 25 27 28 28 27 28 29 29 29
17 16 16 17 18 19 20 20 20 21 22 22 22 24 27 28 28 27 27 28 28 28
17 16 17 18 19 20 20 20 21 22 22 22 22 25 28 28 27 27 27 27 28 28
17 16 17 18 19 19 19 21 21 21 22 21 22 28 28 28 27 26 26 26 27 27
17 17 18 19 19 18 19 20 20 21 22 21 22 27 27 27 27 26 27 27 27 26
17 18 19 19 18 17 19 20 20 21 22 22 23 27 26 28 26 26 26 26 26 26
19 18 18 18 17 18 19 20 20 21 21 21 22 26 26 27 25 24 24 25 26 28
20 19 18 17 17 18 19 20 20 20 21 22 21 25 25 26 25 24 24 25 27 26
20 19 18 17 18 17 18 19 18 19 20 20 21 24 25 25 25 24 24 24 24 24

GFSNIL_sfc_30mbdewp_126.txt.gz
Dewpoint
28 28 26 25 24 24 23 25 25 26 27 30 35 36 37 38 38 39 40 40 41 44
25 24 23 22 20 21 21 20 22 23 24 26 29 30 32 33 34 35 37 38 38 42
25 24 20 18 17 18 19 20 21 22 22 23 28 29 29 29 30 30 32 33 37 37
22 21 17 16 16 17 18 19 20 21 22 22 26 28 28 27 28 28 29 31 31 29
22 18 15 15 16 18 18 19 20 21 21 21 22 26 28 27 27 26 28 29 29 29
20 17 15 15 17 19 19 19 20 21 21 21 21 25 27 28 27 26 27 28 28 28
20 17 15 16 18 19 20 19 20 21 22 22 22 24 28 28 27 26 27 28 27 27
21 17 16 17 19 19 19 20 21 21 21 22 21 25 29 28 27 26 26 26 27 27
21 17 17 18 18 19 19 20 20 20 21 21 21 26 28 28 27 26 26 26 27 27
21 17 17 18 18 17 17 20 19 20 21 21 22 27 28 29 26 26 26 26 26 26
20 18 18 19 18 17 18 19 19 19 21 21 22 26 27 28 25 25 25 25 25 26
20 18 19 18 17 17 17 19 19 20 21 20 21 24 26 27 26 25 24 24 25 27
21 19 19 18 17 17 18 19 20 19 20 22 22 23 25 26 25 24 24 24 25 26
21 19 19 18 17 17 17 19 18 18 19 20 21 22 26 26 26 25 24 24 24 25

GFSNIL_sfc_30mbdewp_132.txt.gz
Dewpoint
31 30 27 26 22 22 20 22 22 22 22 23 26 26 27 27 27 28 33 35 35 33
30 28 27 23 21 19 20 18 18 20 21 22 25 26 26 25 24 26 29 31 29 30
27 26 25 21 18 17 17 19 20 20 20 20 23 25 26 25 23 23 25 25 26 26
27 26 23 19 17 17 18 18 18 19 20 19 20 24 26 25 24 23 23 25 26 25
28 25 23 19 17 15 15 16 16 17 17 17 18 23 26 26 24 23 23 24 25 25
30 26 23 19 17 16 17 16 16 17 17 18 18 22 25 26 25 24 24 24 24 24
33 28 24 20 18 17 17 16 15 17 18 19 19 21 27 28 27 26 25 25 26 25
35 29 24 20 18 18 18 17 17 17 18 19 19 18 25 28 28 27 25 25 25 25
35 30 25 21 19 19 19 18 18 18 18 18 18 20 29 30 28 26 25 24 24 24
37 33 27 22 19 19 19 17 17 17 18 18 18 23 27 29 28 26 25 25 24 23
37 34 29 23 20 20 19 17 16 17 18 18 20 23 27 27 28 27 26 25 24 23
37 34 30 24 21 20 19 17 17 18 18 19 19 22 26 26 26 26 24 24 24 24
37 34 30 25 22 22 19 18 18 18 21 21 19 22 26 25 24 24 23 23 23 25
35 33 30 26 23 22 19 19 17 18 19 20 19 19 23 25 26 24 23 23 21 22